Tillbaka till svenska Fidonet
English   Information   Debug  
FILM   0/18
FNEWS_PUBLISH   4461
FN_SYSOP   41736
FN_SYSOP_OLD1   71952
FTP_FIDO   0/2
FTSC_PUBLIC   0/13627
FUNNY   0/4886
GENEALOGY.EUR   0/71
GET_INFO   105
GOLDED   0/408
HAM   0/16084
HOLYSMOKE   0/6791
HOT_SITES   0/1
HTMLEDIT   0/71
HUB203   466
HUB_100   264
HUB_400   39
HUMOR   0/29
IC   0/2851
INTERNET   0/424
INTERUSER   0/3
IP_CONNECT   719
JAMNNTPD   0/233
JAMTLAND   0/47
KATTY_KORNER   0/41
LAN   0/16
LINUX-USER   0/19
LINUXHELP   0/1155
LINUX   0/22120
LINUX_BBS   0/957
mail   18.68
mail_fore_ok   249
MENSA   0/341
MODERATOR   0/102
MONTE   0/992
MOSCOW_OKLAHOMA   0/1245
MUFFIN   0/783
MUSIC   0/321
N203_STAT   932
N203_SYSCHAT   313
NET203   321
NET204   69
NET_DEV   0/10
NORD.ADMIN   0/101
NORD.CHAT   0/2572
NORD.FIDONET   189
NORD.HARDWARE   0/28
NORD.KULTUR   0/114
NORD.PROG   0/32
NORD.SOFTWARE   0/88
NORD.TEKNIK   0/58
NORD   0/453
OCCULT_CHAT   0/93
OS2BBS   0/787
OS2DOSBBS   0/580
OS2HW   0/42
OS2INET   0/37
OS2LAN   0/134
OS2PROG   0/36
OS2REXX   0/113
OS2USER-L   207
OS2   0/4794
OSDEBATE   0/18996
PASCAL   0/490
PERL   0/457
PHP   0/45
POINTS   0/405
POLITICS   0/29554
POL_INC   0/14731
PSION   103
R20_ADMIN   1124
R20_AMATORRADIO   0/2
R20_BEST_OF_FIDONET   13
R20_CHAT   0/893
R20_DEPP   0/3
R20_DEV   399
R20_ECHO2   1379
R20_ECHOPRES   0/35
R20_ESTAT   0/719
R20_FIDONETPROG...
...RAM.MYPOINT
  0/2
R20_FIDONETPROGRAM   0/22
R20_FIDONET   0/248
R20_FILEFIND   0/24
R20_FILEFOUND   0/22
R20_HIFI   0/3
R20_INFO2   3268
R20_INTERNET   0/12940
R20_INTRESSE   0/60
R20_INTR_KOM   0/99
R20_KANDIDAT.CHAT   42
R20_KANDIDAT   28
R20_KOM_DEV   112
R20_KONTROLL   0/13318
R20_KORSET   0/18
R20_LOKALTRAFIK   0/24
R20_MODERATOR   0/1852
R20_NC   76
R20_NET200   245
R20_NETWORK.OTH...
...ERNETS
  0/13
R20_OPERATIVSYS...
...TEM.LINUX
  0/44
R20_PROGRAMVAROR   0/1
R20_REC2NEC   534
R20_SFOSM   0/341
R20_SF   0/108
R20_SPRAK.ENGLISH   0/1
R20_SQUISH   107
R20_TEST   2
R20_WORST_OF_FIDONET   12
RAR   0/9
RA_MULTI   106
RA_UTIL   0/162
REGCON.EUR   0/2056
REGCON   0/13
SCIENCE   0/1206
SF   0/239
SHAREWARE_SUPPORT   0/5146
SHAREWRE   0/14
SIMPSONS   0/169
STATS_OLD1   0/2539.065
STATS_OLD2   0/2530
STATS_OLD3   0/2395.095
STATS_OLD4   0/1692.25
SURVIVOR   0/495
SYSOPS_CORNER   0/3
SYSOP   0/84
TAGLINES   0/112
TEAMOS2   0/4530
TECH   0/2617
TEST.444   0/105
TRAPDOOR   0/19
TREK   0/755
TUB   0/290
UFO   0/40
UNIX   0/1316
USA_EURLINK   0/102
USR_MODEMS   0/1
VATICAN   0/2740
VIETNAM_VETS   0/14
VIRUS   0/378
VIRUS_INFO   0/201
VISUAL_BASIC   0/473
WHITEHOUSE   0/5187
WIN2000   0/101
WIN32   0/30
WIN95   0/4290
WIN95_OLD1   0/70272
WINDOWS   0/1517
WWB_SYSOP   0/419
WWB_TECH   0/810
ZCC-PUBLIC   0/1
ZEC   4

 
4DOS   0/134
ABORTION   0/7
ALASKA_CHAT   0/506
ALLFIX_FILE   0/1313
ALLFIX_FILE_OLD1   0/7997
ALT_DOS   0/152
AMATEUR_RADIO   0/1039
AMIGASALE   0/14
AMIGA   0/331
AMIGA_INT   0/1
AMIGA_PROG   0/20
AMIGA_SYSOP   0/26
ANIME   0/15
ARGUS   0/924
ASCII_ART   0/340
ASIAN_LINK   0/651
ASTRONOMY   0/417
AUDIO   0/92
AUTOMOBILE_RACING   0/105
BABYLON5   0/17862
BAG   135
BATPOWER   0/361
BBBS.ENGLISH   0/382
BBSLAW   0/109
BBS_ADS   0/5290
BBS_INTERNET   0/507
BIBLE   0/3563
BINKD   0/1119
BINKLEY   0/215
BLUEWAVE   0/2173
CABLE_MODEMS   0/25
CBM   0/46
CDRECORD   0/66
CDROM   0/20
CLASSIC_COMPUTER   0/378
COMICS   0/15
CONSPRCY   0/899
COOKING   33710
COOKING_OLD1   0/24719
COOKING_OLD2   0/40862
COOKING_OLD3   0/37489
COOKING_OLD4   0/35496
COOKING_OLD5   9370
C_ECHO   0/189
C_PLUSPLUS   0/31
DIRTY_DOZEN   0/201
DOORGAMES   0/2065
DOS_INTERNET   0/196
duplikat   6002
ECHOLIST   0/18295
EC_SUPPORT   0/318
ELECTRONICS   0/359
ELEKTRONIK.GER   1534
ENET.LINGUISTIC   0/13
ENET.POLITICS   0/4
ENET.SOFT   0/11701
ENET.SYSOP   33963
ENET.TALKS   0/32
ENGLISH_TUTOR   0/2000
EVOLUTION   0/1335
FDECHO   0/217
FDN_ANNOUNCE   0/7068
FIDONEWS   24191
FIDONEWS_OLD1   0/49742
FIDONEWS_OLD2   0/35949
FIDONEWS_OLD3   0/30874
FIDONEWS_OLD4   0/37224
FIDO_SYSOP   12852
FIDO_UTIL   0/180
FILEFIND   0/209
FILEGATE   0/212
Möte HAM, 16084 texter
 lista första sista föregående nästa
Text 2028, 815 rader
Skriven 2008-01-10 23:00:27 av Amsat List (1:323/120.0)
Ärende: [keps]  orb08010.amsa
=============================
[keps]  orb08010.amsa

Return-Path: <keps-bounces@amsat.org>
X-Rcpt: craig.healy@chowda.com
X-UIDL: 1200021676.3573

SB KEPS @ AMSAT  $ORB08010.O
Orbital Elements  08010.OSCAR

HR AMSAT ORBITAL ELEMENTS FOR OSCAR SATELLITES
FROM WA5QGD FORT WORTH,TX January 10, 2008
Send Subscribe/unsubscribe to KEPS at 
http://www.amsat.org/mailman/listinfo/keps
BID: ORB08010.O
TO ALL RADIO AMATEURS BT

Satellite: AO-07
Catalog number: 07530
Epoch time:      08008.72298450
Element set:    0074
Inclination:      101.4891 deg
RA of node:       045.4661 deg
Eccentricity:    0.0011926
Arg of perigee:   214.6314 deg
Mean anomaly:     145.3979 deg
Mean motion:   12.53573136 rev/day
Decay rate:       -2.8e-07 rev/day^2
Epoch rev:           51687
Checksum:              299

Satellite: AO-10
Catalog number: 14129
Epoch time:      08008.98779200
Element set:    0458
Inclination:      025.9399 deg
RA of node:       236.6230 deg
Eccentricity:    0.6039764
Arg of perigee:   088.5122 deg
Mean anomaly:     335.4715 deg
Mean motion:   02.05870685 rev/day
Decay rate:      -1.49e-06 rev/day^2
Epoch rev:           18480
Checksum:              328

Satellite: UO-11
Catalog number: 14781
Epoch time:      08008.77816931
Element set:    0566
Inclination:      098.1734 deg
RA of node:       040.2522 deg
Eccentricity:    0.0008273
Arg of perigee:   225.8448 deg
Mean anomaly:     134.2109 deg
Mean motion:   14.79608209 rev/day
Decay rate:        8.3e-07 rev/day^2
Epoch rev:           28013
Checksum:              300

Satellite: RS-15
Catalog number: 23439
Epoch time:      08009.54592892
Element set:    0113
Inclination:      064.8178 deg
RA of node:       033.2028 deg
Eccentricity:    0.0152000
Arg of perigee:   153.1310 deg
Mean anomaly:     207.7588 deg
Mean motion:   11.27551984 rev/day
Decay rate:       -3.9e-07 rev/day^2
Epoch rev:           53696
Checksum:              300

Satellite: FO-29
Catalog number: 24278
Epoch time:      08009.90109926
Element set:     677
Inclination:      098.5784 deg
RA of node:       307.0567 deg
Eccentricity:    0.0349817
Arg of perigee:   267.9498 deg
Mean anomaly:     088.1552 deg
Mean motion:   13.52934787 rev/day
Decay rate:       -9.6e-07 rev/day^2
Epoch rev:           56285
Checksum:              384

Satellite: SO-33
Catalog number: 25509
Epoch time:      08010.65994403
Element set:     107
Inclination:      031.4283 deg
RA of node:       132.6858 deg
Eccentricity:    0.0354785
Arg of perigee:   081.2507 deg
Mean anomaly:     282.8122 deg
Mean motion:   14.28190439 rev/day
Decay rate:       -7.3e-07 rev/day^2
Epoch rev:           48093
Checksum:              305

Satellite: AO-40
Catalog number: 26609
Epoch time:      08010.36069352
Element set:     990
Inclination:      007.2666 deg
RA of node:       103.0012 deg
Eccentricity:    0.7928920
Arg of perigee:   040.5491 deg
Mean anomaly:     356.5655 deg
Mean motion:   01.25584041 rev/day
Decay rate:      -2.87e-06 rev/day^2
Epoch rev:            3304
Checksum:              285

Satellite: VO-52
Catalog number: 28650
Epoch time:      08009.32893476
Element set:    0826
Inclination:      097.8121 deg
RA of node:       080.1818 deg
Eccentricity:    0.0026123
Arg of perigee:   303.3046 deg
Mean anomaly:     056.5649 deg
Mean motion:   14.81405491 rev/day
Decay rate:       -3.7e-07 rev/day^2
Epoch rev:           14493
Checksum:              305

Satellite: PO-63
Catalog number: 29712
Epoch time:      08010.75790377
Element set:      83
Inclination:      097.8991 deg
RA of node:       071.7827 deg
Eccentricity:    0.0014525
Arg of perigee:   171.3647 deg
Mean anomaly:     188.7820 deg
Mean motion:   14.79978940 rev/day
Decay rate:       8.00e-06 rev/day^2
Epoch rev:            5403
Checksum:              338

/EX
SB KEPS @ AMSAT  $ORB08010.D
Orbital Elements  08010.MICROS

HR AMSAT ORBITAL ELEMENTS FOR THE MICROSATS
FROM WA5QGD FORT WORTH,TX January 10, 2008
Send Subscribe/unsubscribe to KEPS at 
http://www.amsat.org/mailman/listinfo/keps
BID: ORB08010.D
TO ALL RADIO AMATEURS BT

Satellite: AO-16
Catalog number: 20439
Epoch time:      08009.52773434
Element set:    0224
Inclination:      098.2131 deg
RA of node:       357.8965 deg
Eccentricity:    0.0010222
Arg of perigee:   296.2519 deg
Mean anomaly:     063.7617 deg
Mean motion:   14.31781103 rev/day
Decay rate:        1.0e-07 rev/day^2
Epoch rev:           93807
Checksum:              291

Satellite: LO-19
Catalog number: 20442
Epoch time:      08010.44004232
Element set:     147
Inclination:      098.1897 deg
RA of node:       007.7300 deg
Eccentricity:    0.0011068
Arg of perigee:   290.1262 deg
Mean anomaly:     069.8734 deg
Mean motion:   14.32020491 rev/day
Decay rate:        9.0e-08 rev/day^2
Epoch rev:           93835
Checksum:              271

Satellite: AO-27
Catalog number: 22825
Epoch time:      08010.42325063
Element set:     871
Inclination:      098.3625 deg
RA of node:       336.5903 deg
Eccentricity:    0.0008832
Arg of perigee:   015.8086 deg
Mean anomaly:     344.3362 deg
Mean motion:   14.29227540 rev/day
Decay rate:       -1.3e-07 rev/day^2
Epoch rev:           74509
Checksum:              291

Satellite: IO-26
Catalog number: 22826
Epoch time:      08010.43482654
Element set:     571
Inclination:      098.3549 deg
RA of node:       337.5844 deg
Eccentricity:    0.0009276
Arg of perigee:   012.3749 deg
Mean anomaly:     347.7659 deg
Mean motion:   14.29475060 rev/day
Decay rate:        2.0e-08 rev/day^2
Epoch rev:           74518
Checksum:              326

